When you browse on this site, cookies collect data to enhance your experience and personalize the content and advertising you see.
Visit our Privacy Policy to learn more. By continuing to use the site, you agree to this use of cookies and data.
  • In Spain
  • List of Countries
  • For 7 days
  • Water Temperature
  • Satellite Maps
  • Weather Map
  • Weather Widgets
  • user-avatar
    Login

    Hourly Weather Bosangoa

    Today, 16 June, Sunday

    Time Temperature Precipitation Wind Pressure Humidity
    00:00 +24°C° 0 mm 1 mps 711 mmHg 93%
    01:00 +23°C° 0 mm 1 mps 710 mmHg 94%
    02:00 +23°C° 0 mm 1 mps 710 mmHg 94%
    03:00 +23°C° 0 mm 1 mps 710 mmHg 95%
    04:00 +23°C° 0 mm 1 mps 710 mmHg 95%
    05:00 +23°C° 0 mm 1 mps 710 mmHg 95%
    06:00 +24°C° 0 mm 1 mps 711 mmHg 94%
    07:00 +24°C° 0 mm 1 mps 711 mmHg 94%
    08:00 +26°C° 0 mm 1 mps 711 mmHg 85%
    09:00 +28°C° 0 mm 1 mps 711 mmHg 76%
    10:00 +30°C° 0 mm 2 mps 712 mmHg 68%
    11:00 +31°C° 0 mm 1 mps 711 mmHg 64%
    12:00 +33°C° 0 mm 1 mps 711 mmHg 60%
    13:00 +32°C° 0 mm 0 mps 711 mmHg 56%
    14:00 +33°C° 0.5 mm 1 mps 710 mmHg 63%
    15:00 +31°C° 0.5 mm 1 mps 709 mmHg 69%
    16:00 +30°C° 0.5 mm 1 mps 708 mmHg 76%
    17:00 +28°C° 0.3 mm 1 mps 709 mmHg 81%
    18:00 +27°C° 0.3 mm 1 mps 709 mmHg 87%
    19:00 +25°C° 0.3 mm 1 mps 709 mmHg 92%
    20:00 +24°C° 0.7 mm 1 mps 710 mmHg 93%
    21:00 +24°C° 0.7 mm 1 mps 710 mmHg 94%
    22:00 +24°C° 0.7 mm 1 mps 711 mmHg 95%
    23:00 +23°C° 0.2 mm 1 mps 711 mmHg 95%

    Tomorrow, 17 June, Monday

    Time Temperature Precipitation Wind Pressure Humidity
    00:00 +23°C° 0.2 mm 1 mps 711 mmHg 95%
    01:00 +23°C° 0.2 mm 2 mps 711 mmHg 95%
    02:00 +23°C° 0 mm 2 mps 710 mmHg 95%
    03:00 +21°C° 0 mm 2 mps 710 mmHg 96%
    04:00 +22°C° 0 mm 1 mps 710 mmHg 96%
    05:00 +21°C° 0 mm 2 mps 710 mmHg 95%
    06:00 +23°C° 0 mm 2 mps 710 mmHg 94%
    07:00 +23°C° 0 mm 2 mps 711 mmHg 92%
    08:00 +25°C° 0 mm 2 mps 711 mmHg 84%
    09:00 +27°C° 0 mm 3 mps 711 mmHg 77%
    10:00 +29°C° 0 mm 3 mps 711 mmHg 69%
    11:00 +30°C° 0 mm 3 mps 711 mmHg 66%
    12:00 +31°C° 0 mm 2 mps 711 mmHg 63%
    13:00 +32°C° 0 mm 2 mps 710 mmHg 60%
    14:00 +31°C° 0.6 mm 2 mps 710 mmHg 67%
    15:00 +30°C° 0.6 mm 2 mps 709 mmHg 74%
    16:00 +29°C° 0.6 mm 2 mps 709 mmHg 81%
    17:00 +28°C° 0.2 mm 2 mps 709 mmHg 85%
    18:00 +26°C° 0.2 mm 1 mps 709 mmHg 90%
    19:00 +25°C° 0.2 mm 1 mps 710 mmHg 94%
    20:00 +24°C° 0 mm 1 mps 710 mmHg 94%
    21:00 +24°C° 0 mm 1 mps 711 mmHg 94%
    22:00 +23°C° 0 mm 1 mps 711 mmHg 94%
    23:00 +23°C° 0 mm 1 mps 711 mmHg 95%

    Day after tomorrow, 18 June, Tuesday

    Time Temperature Precipitation Wind Pressure Humidity
    00:00 +22°C° 0 mm 1 mps 711 mmHg 95%
    01:00 +22°C° 0 mm 1 mps 711 mmHg 95%
    02:00 +22°C° 0 mm 1 mps 711 mmHg 96%
    03:00 +22°C° 0 mm 1 mps 711 mmHg 96%
    04:00 +22°C° 0 mm 1 mps 711 mmHg 96%
    05:00 +22°C° 0.5 mm 1 mps 711 mmHg 96%
    06:00 +23°C° 0.5 mm 2 mps 711 mmHg 96%
    07:00 +23°C° 0.5 mm 2 mps 712 mmHg 95%
    08:00 +24°C° 0 mm 2 mps 712 mmHg 90%
    09:00 +26°C° 0 mm 2 mps 712 mmHg 85%
    10:00 +27°C° 0 mm 2 mps 712 mmHg 80%
    11:00 +29°C° 0 mm 2 mps 712 mmHg 72%
    12:00 +31°C° 0 mm 2 mps 712 mmHg 65%
    13:00 +32°C° 0 mm 2 mps 711 mmHg 57%
    14:00 +31°C° 0.1 mm 2 mps 711 mmHg 62%
    15:00 +30°C° 0.1 mm 2 mps 710 mmHg 67%
    16:00 +29°C° 0.1 mm 1 mps 710 mmHg 72%
    17:00 +28°C° 0 mm 1 mps 710 mmHg 76%
    18:00 +26°C° 0 mm 1 mps 710 mmHg 79%
    19:00 +25°C° 0 mm 1 mps 710 mmHg 83%
    20:00 +25°C° 0 mm 1 mps 710 mmHg 86%
    21:00 +24°C° 0 mm 1 mps 711 mmHg 89%
    22:00 +23°C° 0 mm 1 mps 711 mmHg 92%
    23:00 +23°C° 0.2 mm 1 mps 711 mmHg 93%

    19 June, Wednesday

    Time Temperature Precipitation Wind Pressure Humidity
    00:00 +21°C° 0.2 mm 0 mps 711 mmHg 94%
    01:00 +21°C° 0.2 mm 0 mps 710 mmHg 95%
    02:00 +21°C° 0.1 mm 0 mps 710 mmHg 96%
    03:00 +20°C° 0.1 mm 0 mps 710 mmHg 96%
    04:00 +22°C° 0.1 mm 1 mps 710 mmHg 97%
    05:00 +23°C° 0 mm 1 mps 710 mmHg 95%
    06:00 +23°C° 0 mm 1 mps 711 mmHg 93%
    07:00 +24°C° 0 mm 1 mps 711 mmHg 92%
    08:00 +26°C° 0 mm 1 mps 711 mmHg 81%
    09:00 +29°C° 0 mm 1 mps 712 mmHg 71%
    10:00 +31°C° 0 mm 1 mps 712 mmHg 60%
    11:00 +32°C° 0 mm 2 mps 711 mmHg 57%
    12:00 +32°C° 0 mm 2 mps 711 mmHg 54%
    13:00 +34°C° 0 mm 2 mps 710 mmHg 51%
    14:00 +34°C° 0 mm 2 mps 710 mmHg 54%
    15:00 +32°C° 0 mm 2 mps 709 mmHg 58%
    16:00 +32°C° 0 mm 2 mps 709 mmHg 61%
    17:00 +30°C° 0.2 mm 2 mps 709 mmHg 69%
    18:00 +28°C° 0.2 mm 1 mps 709 mmHg 76%
    19:00 +26°C° 0.2 mm 1 mps 709 mmHg 83%
    20:00 +25°C° 0.3 mm 1 mps 710 mmHg 86%
    21:00 +24°C° 0.3 mm 1 mps 710 mmHg 89%
    22:00 +24°C° 0.3 mm 1 mps 710 mmHg 92%
    23:00 +23°C° 0.1 mm 1 mps 710 mmHg 92%

    20 June, Thursday

    Time Temperature Precipitation Wind Pressure Humidity
    00:00 +23°C° 0.1 mm 1 mps 710 mmHg 92%
    01:00 +23°C° 0.1 mm 1 mps 710 mmHg 92%
    02:00 +23°C° 0.4 mm 1 mps 710 mmHg 92%
    03:00 +21°C° 0.4 mm 0 mps 710 mmHg 93%
    04:00 +21°C° 0.4 mm 0 mps 709 mmHg 93%
    05:00 +23°C° 0 mm 1 mps 710 mmHg 93%
    06:00 +23°C° 0 mm 1 mps 710 mmHg 94%
    07:00 +23°C° 0 mm 1 mps 710 mmHg 94%
    08:00 +25°C° 0.4 mm 1 mps 711 mmHg 90%
    09:00 +26°C° 0.4 mm 2 mps 711 mmHg 86%
    10:00 +28°C° 0.4 mm 2 mps 712 mmHg 82%
    11:00 +29°C° 0.2 mm 2 mps 711 mmHg 76%
    12:00 +29°C° 0.2 mm 2 mps 711 mmHg 71%
    13:00 +30°C° 0.2 mm 2 mps 710 mmHg 65%
    14:00 +30°C° 0.3 mm 2 mps 710 mmHg 68%
    15:00 +30°C° 0.3 mm 2 mps 709 mmHg 71%
    16:00 +30°C° 0.3 mm 1 mps 709 mmHg 74%
    17:00 +28°C° 0.4 mm 1 mps 709 mmHg 79%
    18:00 +27°C° 0.4 mm 1 mps 709 mmHg 84%
    19:00 +25°C° 0.4 mm 1 mps 709 mmHg 89%
    20:00 +24°C° 0 mm 1 mps 710 mmHg 91%
    21:00 +24°C° 0 mm 1 mps 710 mmHg 92%
    22:00 +23°C° 0 mm 1 mps 710 mmHg 93%
    23:00 +23°C° 0 mm 1 mps 710 mmHg 93%

    21 June, Friday

    Time Temperature Precipitation Wind Pressure Humidity
    00:00 +22°C° 0 mm 1 mps 710 mmHg 93%
    01:00 +22°C° 0 mm 1 mps 710 mmHg 93%
    02:00 +22°C° 0 mm 1 mps 710 mmHg 94%
    03:00 +21°C° 0 mm 1 mps 710 mmHg 94%
    04:00 +19°C° 0 mm 0 mps 710 mmHg 95%
    05:00 +22°C° 0 mm 1 mps 710 mmHg 93%
    06:00 +23°C° 0 mm 1 mps 711 mmHg 92%
    07:00 +23°C° 0 mm 1 mps 711 mmHg 90%
    08:00 +25°C° 0 mm 2 mps 711 mmHg 84%
    09:00 +26°C° 0 mm 2 mps 712 mmHg 78%
    10:00 +28°C° 0 mm 3 mps 712 mmHg 73%
    11:00 +28°C° 1.1 mm 2 mps 711 mmHg 75%
    12:00 +29°C° 1.1 mm 2 mps 711 mmHg 77%
    13:00 +30°C° 1.1 mm 2 mps 710 mmHg 79%
    14:00 +29°C° 0.8 mm 2 mps 709 mmHg 78%
    15:00 +29°C° 0.8 mm 2 mps 709 mmHg 77%
    16:00 +29°C° 0.8 mm 2 mps 709 mmHg 76%
    17:00 +28°C° 0 mm 1 mps 709 mmHg 81%
    18:00 +26°C° 0 mm 1 mps 709 mmHg 85%
    19:00 +25°C° 0 mm 1 mps 709 mmHg 90%
    20:00 +24°C° 0 mm 1 mps 710 mmHg 90%
    21:00 +24°C° 0 mm 1 mps 710 mmHg 91%
    22:00 +23°C° 0 mm 1 mps 710 mmHg 92%
    23:00 +23°C° 0 mm 1 mps 710 mmHg 92%
    Show more